Madawaska, ME

7:08 PM EST on February 14, 2016 (GMT -0500)
Northern Aroostook Regional

Weather History for KFVE - February, 2013

Change the Weather History Date:

Monday, February 18, 2013

  Actual Average Record
Temperature  
Mean Temperature 14 °F 14 °F  
Max Temperature 19 °F 22 °F 44 °F (2008)
Min Temperature 9 °F 6 °F -15 °F (2000)
Degree Days  
Heating Degree Days 51    
Month to date heating degree days 974  
Since 1 July heating degree days 6081  
Cooling Degree Days 0    
Month to date cooling degree days 0  
Year to date cooling degree days 0  
Moisture  
Dew Point 5 °F    
Average Humidity 70    
Maximum Humidity 79    
Minimum Humidity 57    
Precipitation  
Precipitation T in 0.03 in 0.25 in (2008)
Month to date precipitation 0.13 0.41  
Year to date precipitation 1.11 2.17  
Sea Level Pressure  
Sea Level Pressure 29.32 in    
Wind  
Wind Speed 27 mph (NW)    
Max Wind Speed 37 mph    
Max Gust Speed 51 mph    
Visibility 4 miles    
Events Snow    
T = Trace of Precipitation, MM = Missing Value Source: NWS Daily Summary

Daily Weather History Graph

Daily Weather History Graph

Search for Another Location

Airport or City:

Trip Planner

Search our weather history database for the weather conditions in past years. The results will help you decide how hot, cold, wet, or windy it might be!

Date:

Astronomy

Feb. 18, 2013 Rise Set
Actual Time 6:32 AM EST 5:02 PM EST
Civil Twilight 6:01 AM EST 5:33 PM EST
Nautical Twilight 5:25 AM EST 6:09 PM EST
Astronomical Twilight 4:50 AM EST 6:44 PM EST
Moon 10:33 AM EST (2/18) 1:20 AM EST (2/18)
Length of Visible Light 11h 31m
Length of Day
10h 29m
First Quarter, 58% of the Moon is Illuminated
Feb 18
First Quarter
Feb 25
Full
Mar 4
Last Quarter
Mar 11
New
Mar 19
First Quarter

Hourly Weather History & Observations

Time (EST) Temp. Windchill Dew Point Humidity Pressure Visibility Wind Dir Wind Speed Gust Speed Precip Events Conditions
12:13 AM 12.2 °F -8.9 °F 6.8 °F 79% 29.04 in 1.5 mi NW 28.8 mph 42.6 mph 0.00 in Snow Light Snow
12:33 AM 12.2 °F -8.9 °F 6.8 °F 79% 29.04 in 1.5 mi NW 28.8 mph 46.0 mph 0.00 in Snow Light Snow
12:53 AM 12.0 °F -9.5 °F 6.1 °F 77% 29.09 in 1.8 mi NW 29.9 mph 49.5 mph 0.00 in Snow Light Snow
1:00 AM 12.2 °F -7.1 °F 6.8 °F 79% 29.05 in 2.0 mi NW 23.0 mph 46.0 mph 0.00 in Snow Light Snow
1:12 AM 12.2 °F -8.9 °F 6.8 °F 79% 29.05 in 4.0 mi NW 28.8 mph 42.6 mph 0.00 in Snow Light Snow
1:53 AM 10.9 °F -11.3 °F 5.0 °F 77% 29.12 in 3.0 mi NW 31.1 mph 42.6 mph 0.00 in Snow Light Snow
2:03 AM 10.4 °F -12.3 °F 5.0 °F 79% 29.07 in 2.5 mi NW 32.2 mph 44.9 mph 0.00 in Snow Light Snow
2:27 AM 10.4 °F -11.4 °F 3.2 °F 73% 29.08 in 3.0 mi NW 28.8 mph 42.6 mph 0.00 in Snow Light Snow
2:36 AM 10.4 °F -13.0 °F 3.2 °F 73% 29.08 in 1.8 mi NW 34.5 mph 47.2 mph 0.00 in Snow Light Snow
2:49 AM 10.4 °F -12.7 °F 5.0 °F 79% 29.09 in 2.5 mi NW 33.4 mph 48.3 mph 0.00 in Snow Light Snow
2:53 AM 10.9 °F -10.6 °F 5.0 °F 77% 29.13 in 2.5 mi NW 28.8 mph 48.3 mph 0.00 in Snow Light Snow
3:07 AM 10.4 °F -10.7 °F 5.0 °F 79% 29.09 in 3.0 mi NW 26.5 mph 41.4 mph 0.00 in Snow Light Snow
3:53 AM 10.9 °F -11.9 °F 3.9 °F 73% 29.18 in 3.0 mi NW 33.4 mph 47.2 mph 0.00 in Snow Light Snow
4:53 AM 10.0 °F -10.0 °F 3.9 °F 76% 29.23 in 3.0 mi NW 23.0 mph 39.1 mph 0.00 in Snow Light Snow
5:05 AM 10.4 °F -11.0 °F 3.2 °F 73% 29.18 in 2.5 mi WNW 27.6 mph 41.4 mph 0.00 in Snow Light Snow
5:53 AM 10.0 °F -11.5 °F 3.0 °F 73% 29.26 in 2.0 mi NW 27.6 mph 40.3 mph 0.00 in Snow Light Snow
6:12 AM 8.6 °F -13.4 °F 3.2 °F 79% 29.22 in 1.8 mi WNW 27.6 mph 39.1 mph 0.00 in Snow Light Snow
6:20 AM 8.6 °F -13.8 °F 3.2 °F 79% 29.22 in 1.5 mi WNW 28.8 mph 39.1 mph 0.00 in Snow Light Snow
6:42 AM 10.4 °F -11.7 °F 3.2 °F 73% 29.23 in 1.8 mi WNW 29.9 mph 42.6 mph 0.00 in Snow Light Snow
6:47 AM 10.4 °F -11.0 °F 3.2 °F 73% 29.24 in 1.2 mi WNW 27.6 mph 42.6 mph 0.00 in Snow Light Snow
6:53 AM 10.0 °F -12.8 °F 3.0 °F 73% 29.29 in 1.0 mi WNW 32.2 mph 46.0 mph 0.00 in Snow Light Snow
7:31 AM 8.6 °F -13.1 °F 3.2 °F 79% 29.25 in 1.0 mi NW 26.5 mph 46.0 mph 0.00 in Snow Light Snow
7:53 AM 9.0 °F -13.0 °F 1.9 °F 73% 29.31 in 1.0 mi NW 27.6 mph 48.3 mph 0.00 in Snow Light Snow
8:07 AM 8.6 °F -12.3 °F 1.4 °F 73% 29.26 in 1.5 mi NW 24.2 mph 43.7 mph 0.00 in Snow Light Snow
8:26 AM 8.6 °F -12.7 °F 1.4 °F 73% 29.27 in 1.0 mi NW 25.3 mph 43.7 mph 0.00 in Snow Light Snow
8:53 AM 10.0 °F -12.5 °F 3.0 °F 73% 29.32 in 1.2 mi NW 31.1 mph 43.7 mph 0.00 in Snow Light Snow
9:36 AM 10.4 °F -9.9 °F 3.2 °F 73% 29.29 in 1.8 mi NW 24.2 mph 41.4 mph 0.00 in Snow Light Snow
9:46 AM 10.4 °F -12.7 °F 3.2 °F 73% 29.29 in 1.2 mi WNW 33.4 mph 42.6 mph 0.00 in Snow Light Snow
9:53 AM 10.9 °F -11.3 °F 3.0 °F 70% 29.35 in 1.5 mi NW 31.1 mph 42.6 mph 0.00 in Snow Light Snow
10:03 AM 12.2 °F -8.6 °F 3.2 °F 67% 29.31 in 1.8 mi WNW 27.6 mph 41.4 mph 0.00 in Snow Light Snow
10:09 AM 12.2 °F -7.1 °F 3.2 °F 67% 29.31 in 3.0 mi WNW 23.0 mph 38.0 mph 0.00 in Snow Light Snow
10:53 AM 12.0 °F -9.2 °F 3.0 °F 67% 29.37 in 5.0 mi NW 28.8 mph 39.1 mph 0.00 in   Overcast
11:45 AM 14.0 °F -5.1 °F 5.0 °F 67% 29.33 in 6.0 mi WNW 24.2 mph 40.3 mph 0.00 in Snow Blowing Snow
11:53 AM 15.1 °F -4.0 °F 5.0 °F 64% 29.39 in 5.0 mi NW 25.3 mph 39.1 mph 0.00 in Snow Blowing Snow
12:49 PM 17.6 °F -2.2 °F 6.8 °F 63% 29.36 in 8.0 mi WNW 31.1 mph 41.4 mph N/A   Mostly Cloudy
12:53 PM 17.1 °F -1.4 °F 6.1 °F 62% 29.42 in 8.0 mi NW 25.3 mph 40.3 mph N/A   Mostly Cloudy
1:53 PM 19.0 °F 1.0 °F 6.1 °F 57% 29.45 in 6.0 mi NW 26.5 mph 43.7 mph N/A Snow Blowing Snow
2:33 PM 19.4 °F 1.1 °F 6.8 °F 58% 29.43 in 7.0 mi WNW 27.6 mph 44.9 mph N/A   Mostly Cloudy
2:53 PM 19.0 °F 1.0 °F 6.1 °F 57% 29.49 in 9.0 mi WNW 26.5 mph 39.1 mph N/A   Mostly Cloudy
3:53 PM 19.0 °F 0.6 °F 7.0 °F 59% 29.52 in 10.0 mi WNW 27.6 mph 39.1 mph N/A   Scattered Clouds
4:53 PM 19.0 °F 0.6 °F 7.0 °F 59% 29.55 in 9.0 mi WNW 27.6 mph 44.9 mph N/A   Clear
5:53 PM 19.0 °F 0.6 °F 7.0 °F 59% 29.60 in 10.0 mi NW 27.6 mph 40.3 mph N/A   Partly Cloudy
6:53 PM 18.0 °F 0.2 °F 7.0 °F 62% 29.63 in 10.0 mi WNW 24.2 mph 38.0 mph N/A   Clear
7:53 PM 17.1 °F 0.1 °F 6.1 °F 62% 29.68 in 10.0 mi WNW 20.7 mph 36.8 mph N/A   Clear
8:53 PM 17.1 °F -0.3 °F 6.1 °F 62% 29.70 in 10.0 mi WNW 21.9 mph 43.7 mph N/A   Clear
9:53 PM 16.0 °F -0.9 °F 6.1 °F 65% 29.73 in 10.0 mi WNW 19.6 mph 31.1 mph N/A   Clear
10:53 PM 16.0 °F -2.1 °F 6.1 °F 65% 29.75 in 10.0 mi WNW 23.0 mph 33.4 mph N/A   Clear
11:53 PM 16.0 °F -2.1 °F 6.1 °F 65% 29.79 in 10.0 mi WNW 23.0 mph 31.1 mph N/A   Clear